TimeCDT,TemperatureF,Dew PointF,Humidity,Sea Level PressureIn,VisibilityMPH,Wind Direction,Wind SpeedMPH,Gust SpeedMPH,PrecipitationIn,Events,Conditions,WindDirDegrees,DateUTC
12:02 AM,64.4,59.0,83,29.88,10.0,SE,4.6,-,N/A,Rain,Light Rain,140,2013-08-02 05:02:00
12:38 AM,62.6,60.8,94,29.88,10.0,North,2.3,-,N/A,,Mostly Cloudy,10,2013-08-02 05:38:00
12:58 AM,63.1,61.2,93,29.88,10.0,SE,4.6,-,0.01,,Overcast,140,2013-08-02 05:58:00
1:58 AM,60.3,59.7,98,29.86,10.0,South,3.5,-,N/A,,Clear,190,2013-08-02 06:58:00
2:58 AM,59.7,59.4,99,29.85,10.0,SSW,3.5,-,N/A,,Clear,210,2013-08-02 07:58:00
3:58 AM,58.8,58.6,99,29.85,10.0,WSW,1.2,-,N/A,,Clear,250,2013-08-02 08:58:00
4:38 AM,57.2,57.2,100,29.84,3.0,NNW,1.2,-,N/A,,Clear,330,2013-08-02 09:38:00
4:43 AM,57.2,57.2,100,29.84,3.0,NW,2.3,-,N/A,,Clear,310,2013-08-02 09:43:00
4:48 AM,57.2,57.2,100,29.84,5.0,NNW,3.5,-,N/A,,Clear,330,2013-08-02 09:48:00
4:53 AM,55.4,55.4,100,29.84,3.0,NNW,2.3,-,N/A,,Clear,330,2013-08-02 09:53:00
4:58 AM,55.4,55.4,100,29.84,1.2,Calm,Calm,-,N/A,,Clear,0,2013-08-02 09:58:00
5:03 AM,55.4,55.4,100,29.83,1.8,Calm,Calm,-,N/A,,Clear,0,2013-08-02 10:03:00
5:08 AM,55.4,55.4,100,29.83,9.0,Calm,Calm,-,N/A,,Clear,0,2013-08-02 10:08:00
5:13 AM,53.6,53.6,100,29.84,10.0,South,2.3,-,N/A,,Clear,180,2013-08-02 10:13:00
5:53 AM,55.4,55.4,100,29.84,1.2,Calm,Calm,-,N/A,,Clear,0,2013-08-02 10:53:00
5:58 AM,55.0,54.9,99,29.84,0.5,Calm,Calm,-,N/A,Fog,Fog,0,2013-08-02 10:58:00
6:03 AM,55.4,55.4,100,29.84,0.5,Calm,Calm,-,N/A,Fog,Fog,0,2013-08-02 11:03:00
6:08 AM,55.4,55.4,100,29.85,1.8,SSE,3.5,-,N/A,,Clear,150,2013-08-02 11:08:00
6:13 AM,55.4,55.4,100,29.84,0.8,SSE,3.5,-,N/A,,Clear,160,2013-08-02 11:13:00
6:18 AM,55.4,55.4,100,29.85,0.2,SE,2.3,-,N/A,Fog,Fog,140,2013-08-02 11:18:00
6:23 AM,55.4,55.4,100,29.85,0.5,SE,1.2,-,N/A,Fog,Fog,140,2013-08-02 11:23:00
6:28 AM,55.4,55.4,100,29.85,0.8,Calm,Calm,-,N/A,,Clear,0,2013-08-02 11:28:00
6:33 AM,55.4,55.4,100,29.85,0.8,ESE,1.2,-,N/A,,Clear,110,2013-08-02 11:33:00
6:38 AM,55.4,55.4,100,29.85,1.0,ESE,2.3,-,N/A,,Clear,110,2013-08-02 11:38:00
6:43 AM,55.4,55.4,100,29.85,1.5,Calm,Calm,-,N/A,,Clear,0,2013-08-02 11:43:00
7:58 AM,66.2,64.4,94,29.87,10.0,WNW,5.8,-,N/A,,Partly Cloudy,290,2013-08-02 12:58:00
8:58 AM,69.8,62.6,78,29.88,10.0,WNW,9.2,-,N/A,,Partly Cloudy,300,2013-08-02 13:58:00
9:58 AM,73.4,64.4,73,29.87,10.0,WNW,5.8,-,N/A,,Partly Cloudy,300,2013-08-02 14:58:00
10:58 AM,75.2,60.8,61,29.88,10.0,NW,9.2,-,N/A,,Mostly Cloudy,310,2013-08-02 15:58:00
11:58 AM,75.2,59.0,57,29.88,10.0,NNW,10.4,19.6,N/A,,Mostly Cloudy,330,2013-08-02 16:58:00
12:58 PM,77.0,57.2,50,29.89,10.0,WNW,10.4,17.3,N/A,,Mostly Cloudy,290,2013-08-02 17:58:00
1:58 PM,78.8,55.4,44,29.90,10.0,WNW,12.7,19.6,N/A,,Mostly Cloudy,300,2013-08-02 18:58:00
2:58 PM,78.8,57.2,47,29.90,10.0,NW,9.2,-,N/A,,Mostly Cloudy,310,2013-08-02 19:58:00
3:58 PM,75.4,56.8,52,29.91,10.0,NW,5.8,-,N/A,,Partly Cloudy,320,2013-08-02 20:58:00
4:58 PM,73.4,57.4,57,29.92,10.0,NW,5.8,-,N/A,,Partly Cloudy,320,2013-08-02 21:58:00
5:58 PM,73.8,58.6,59,29.93,10.0,NW,5.8,-,N/A,,Partly Cloudy,320,2013-08-02 22:58:00
6:58 PM,70.7,55.8,59,29.95,10.0,NW,5.8,-,N/A,,Clear,320,2013-08-02 23:58:00
7:58 PM,64.6,58.5,80,29.96,10.0,NW,3.5,-,N/A,,Partly Cloudy,310,2013-08-03 00:58:00
8:58 PM,60.1,55.4,85,29.98,10.0,WNW,3.5,-,N/A,,Scattered Clouds,290,2013-08-03 01:58:00
9:58 PM,56.1,53.4,91,30.00,10.0,West,5.8,-,N/A,,Clear,270,2013-08-03 02:58:00
10:58 PM,54.5,52.3,92,29.99,10.0,West,5.8,-,N/A,,Partly Cloudy,270,2013-08-03 03:58:00
11:58 PM,53.4,51.8,94,30.02,10.0,West,4.6,-,N/A,,Partly Cloudy,270,2013-08-03 04:58:00